Volver al catálogo

SL-8 DEB

ActivoPO
NORAD 21091·DEBRIS·🇷🇺 Russia

Lanzado Feb 5, 1991 desde Plesetsk Cosmodrome

Loading…

Próximos Pases (próximas 24 horas)

TLE

ActualizadoSource: Space-Track

Época: Sep 14, 2026, 04:17 UTC

1 21091U 91007C   26257.17895741  .00000179  00000-0  15490-3 0  9993
2 21091  82.9303 216.0512 0026456 202.4409 171.2157 13.81058488791413

Sigue SL-8 DEB en tiempo real con AllMySat

Download on the App Store